Montrose, CO

7:51 PM MDT on September 23, 2017 (GMT -0600)
Montrose Regional

Weather History for KMTJ - September, 2013

Change the Weather History Date:

Friday, September 13, 2013

  Actual Average Record
Temperature  
Mean Temperature 65 °F 63 °F  
Max Temperature 77 °F 79 °F 89 °F (2007)
Min Temperature 53 °F 48 °F 39 °F (2008)
Degree Days  
Heating Degree Days 0 3  
Month to date heating degree days 3 23  
Since 1 July heating degree days 5 28  
Cooling Degree Days 0 1  
Month to date cooling degree days 82 28  
Year to date cooling degree days 883 633  
Growing Degree Days 14 (Base 50)    
Moisture  
Dew Point 52 °F    
Average Humidity 67    
Maximum Humidity 100    
Minimum Humidity 33    
Precipitation  
Precipitation 0.03 in 0.05 in 0.17 in (1997)
Month to date precipitation 0.84 0.50  
Year to date precipitation 6.86 7.83  
Sea Level Pressure  
Sea Level Pressure 29.90 in    
Wind  
Wind Speed 4 mph (SSE)    
Max Wind Speed 23 mph    
Max Gust Speed 28 mph    
Visibility 10 miles    
Events Rain    
T = Trace of Precipitation, MM = Missing Value Source: NWS Daily Summary

Daily Weather History Graph

Daily Weather History Graph

Search for Another Location

Airport or City:

Trip Planner

Search our weather history database for the weather conditions in past years. The results will help you decide how hot, cold, wet, or windy it might be!

Date:

Astronomy

Sep. 13, 2013 Rise Set
Actual Time 6:51 AM MDT 7:22 PM MDT
Civil Twilight 6:24 AM MDT 7:48 PM MDT
Nautical Twilight 5:53 AM MDT 8:20 PM MDT
Astronomical Twilight 5:21 AM MDT 8:52 PM MDT
Moon 3:11 PM MDT (9/13) 12:27 AM MDT (9/13)
Length of Visible Light 13h 23m
Length of Day
12h 30m
Waxing Gibbous, 62% of the Moon is Illuminated
Sep 13
Waxing Gibbous
Sep 19
Full
Sep 26
Last Quarter
Oct 4
New
Oct 11
First Quarter

Hourly Weather History & Observations

Time (MDT) Temp. Dew Point Humidity Pressure Visibility Wind Dir Wind Speed Gust Speed Precip Events Conditions
12:53 AM 60.1 °F 57.9 °F 93% 30.01 in 10.0 mi Calm Calm - 0.00 in Rain Light Rain
1:53 AM 60.1 °F 54.0 °F 80% 29.99 in 9.0 mi SSE 12.7 mph - 0.03 in Rain Light Rain
2:53 AM 57.0 °F 53.1 °F 87% 29.96 in 10.0 mi SE 12.7 mph - 0.00 in   Overcast
3:53 AM 57.9 °F 52.0 °F 81% 29.95 in 10.0 mi East 4.6 mph - N/A   Overcast
4:53 AM 57.0 °F 52.0 °F 83% 29.95 in 10.0 mi SSE 3.5 mph - 0.01 in   Clear
5:53 AM 55.0 °F 51.1 °F 86% 29.96 in 10.0 mi Calm Calm - N/A   Clear
6:53 AM 53.1 °F 52.0 °F 96% 29.96 in 10.0 mi SE 5.8 mph - N/A   Clear
7:53 AM 54.0 °F 53.1 °F 97% 29.99 in 10.0 mi SSE 3.5 mph - N/A   Clear
8:53 AM 57.0 °F 51.1 °F 81% 29.99 in 10.0 mi SE 4.6 mph - N/A   Clear
9:53 AM 62.1 °F 52.0 °F 70% 29.96 in 10.0 mi Calm Calm - N/A   Clear
10:53 AM 64.9 °F 51.1 °F 61% 29.96 in 10.0 mi Calm Calm - N/A   Clear
11:53 AM 69.1 °F 53.1 °F 57% 29.92 in 10.0 mi Calm Calm - N/A   Clear
12:53 PM 71.1 °F 55.0 °F 57% 29.88 in 10.0 mi NNW 3.5 mph - N/A   Clear
1:53 PM 75.0 °F 51.1 °F 43% 29.84 in 10.0 mi Calm Calm - N/A   Clear
2:53 PM 75.0 °F 48.0 °F 38% 29.83 in 10.0 mi Calm Calm - N/A   Scattered Clouds
3:53 PM 73.9 °F 43.0 °F 33% 29.81 in 10.0 mi SE 3.5 mph - N/A   Scattered Clouds
4:53 PM 75.9 °F 44.1 °F 32% 29.77 in 10.0 mi West 3.5 mph - N/A   Partly Cloudy
5:53 PM 72.0 °F 48.9 °F 44% 29.79 in 10.0 mi SW 3.5 mph - N/A   Clear
6:53 PM 71.1 °F 51.1 °F 49% 29.80 in 10.0 mi Calm Calm - N/A   Scattered Clouds
7:53 PM 66.0 °F 54.0 °F 65% 29.81 in 10.0 mi Calm Calm - N/A   Clear
8:53 PM 64.0 °F 55.0 °F 73% 29.84 in 10.0 mi South 4.6 mph - N/A   Clear
9:53 PM 63.0 °F 54.0 °F 72% 29.84 in 10.0 mi SE 6.9 mph - N/A   Clear
10:53 PM 62.1 °F 54.0 °F 75% 29.85 in 10.0 mi Calm Calm - N/A   Overcast
11:53 PM 61.0 °F 53.1 °F 75% 29.84 in 10.0 mi East 4.6 mph - N/A   Partly Cloudy